| time (UTC) | temp C | wind direction | speed KPH | gust KPH | rain 1hr cm | rain 24hr cm | rain mn cm | humidity % | barometer mb |
| 20260506183033 | 10 | 228 | 12.9 | 0.0 | 0.00 | 0.00 | 0.00 | 22 | 1019.6 |
| 20260506182531 | 10 | 236 | 12.9 | 0.0 | 0.00 | 0.00 | 0.00 | 22 | 1019.8 |
| 20260506182033 | 10 | 263 | 11.3 | 0.0 | 0.00 | 0.00 | 0.00 | 23 | 1019.8 |
| 20260506181529 | 9 | 308 | 14.5 | 0.0 | 0.00 | 0.00 | 0.00 | 22 | 1020.0 |
| 20260506181030 | 9 | 329 | 14.5 | 0.0 | 0.00 | 0.00 | 0.00 | 22 | 1020.1 |
| 20260506180528 | 10 | 324 | 16.1 | 0.0 | 0.00 | 0.00 | 0.00 | 23 | 1020.1 |
| 20260506180031 | 9 | 221 | 12.9 | 0.0 | 0.00 | 0.00 | 0.00 | 23 | 1020.3 |
| 20260506175526 | 8 | 254 | 12.9 | 0.0 | 0.00 | 0.00 | 0.00 | 22 | 1020.4 |
| 20260506175024 | 8 | 269 | 14.5 | 0.0 | 0.00 | 0.00 | 0.00 | 24 | 1020.5 |
| 20260506174530 | 8 | 270 | 12.9 | 0.0 | 0.00 | 0.00 | 0.00 | 23 | 1020.6 |
| 20260506174023 | 8 | 315 | 12.9 | 0.0 | 0.00 | 0.00 | 0.00 | 24 | 1020.6 |
| 20260506173624 | 8 | 323 | 16.1 | 0.0 | 0.00 | 0.00 | 0.00 | 24 | 1020.7 |
| 20260506173025 | 8 | 300 | 16.1 | 0.0 | 0.00 | 0.00 | 0.00 | 23 | 1020.7 |
| 20260506172521 | 8 | 319 | 14.5 | 0.0 | 0.00 | 0.00 | 0.00 | 23 | 1020.7 |
| 20260506172021 | 8 | 315 | 14.5 | 0.0 | 0.00 | 0.00 | 0.00 | 23 | 1020.8 |
| 20260506171534 | 8 | 307 | 14.5 | 0.0 | 0.00 | 0.00 | 0.00 | 23 | 1020.9 |
| 20260506171019 | 8 | 310 | 12.9 | 0.0 | 0.00 | 0.00 | 0.00 | 24 | 1021.0 |
| 20260506170520 | 8 | 292 | 14.5 | 0.0 | 0.00 | 0.00 | 0.00 | 25 | 1021.1 |
| 20260506170017 | 8 | 340 | 14.5 | 0.0 | 0.00 | 0.00 | 0.00 | 25 | 1021.1 |
| 20260506165516 | 7 | 257 | 12.9 | 0.0 | 0.00 | 0.00 | 0.00 | 26 | 1021.2 |
| 20260506165016 | 7 | 269 | 16.1 | 0.0 | 0.00 | 0.00 | 0.00 | 26 | 1021.3 |
| 20260506164515 | 7 | 273 | 14.5 | 0.0 | 0.00 | 0.00 | 0.00 | 26 | 1021.4 |
| 20260506164016 | 7 | 263 | 11.3 | 0.0 | 0.00 | 0.00 | 0.00 | 26 | 1021.5 |
| 20260506163614 | 7 | 293 | 12.9 | 0.0 | 0.00 | 0.00 | 0.00 | 27 | 1021.6 |
| 20260506163013 | 7 | 265 | 12.9 | 0.0 | 0.00 | 0.00 | 0.00 | 28 | 1021.5 |
| 20260506162512 | 7 | 275 | 12.9 | 0.0 | 0.00 | 0.00 | 0.00 | 28 | 1021.7 |
| 20260506162012 | 7 | 276 | 12.9 | 0.0 | 0.00 | 0.00 | 0.00 | 28 | 1021.7 |
| 20260506161510 | 7 | 286 | 12.9 | 0.0 | 0.00 | 0.00 | 0.00 | 28 | 1021.7 |
| 20260506161009 | 6 | 259 | 12.9 | 0.0 | 0.00 | 0.00 | 0.00 | 30 | 1021.7 |
| 20260506160509 | 6 | 326 | 12.9 | 0.0 | 0.00 | 0.00 | 0.00 | 30 | 1021.9 |
| 20260506160008 | 6 | 251 | 12.9 | 0.0 | 0.00 | 0.00 | 0.00 | 32 | 1021.9 |
| 20260506155508 | 6 | 252 | 11.3 | 0.0 | 0.00 | 0.00 | 0.00 | 33 | 1022.0 |
| 20260506155006 | 6 | 252 | 8.0 | 0.0 | 0.00 | 0.00 | 0.00 | 33 | 1022.0 |
| 20260506154505 | 6 | 281 | 8.0 | 0.0 | 0.00 | 0.00 | 0.00 | 34 | 1022.0 |
| 20260506154008 | 5 | 302 | 9.7 | 0.0 | 0.00 | 0.00 | 0.00 | 34 | 1022.1 |
| 20260506153604 | 5 | 298 | 9.7 | 0.0 | 0.00 | 0.00 | 0.00 | 35 | 1022.2 |
| 20260506153004 | 5 | 242 | 11.3 | 0.0 | 0.00 | 0.00 | 0.00 | 35 | 1022.3 |
| 20260506152503 | 5 | 259 | 11.3 | 0.0 | 0.00 | 0.00 | 0.00 | 36 | 1022.3 |
| 20260506152003 | 5 | 228 | 12.9 | 0.0 | 0.00 | 0.00 | 0.00 | 36 | 1022.4 |
| 20260506151502 | 5 | 241 | 9.7 | 0.0 | 0.00 | 0.00 | 0.00 | 36 | 1022.5 |
| 20260506151001 | 5 | 257 | 8.0 | 0.0 | 0.00 | 0.00 | 0.00 | 37 | 1022.5 |
| 20260506150503 | 5 | 256 | 8.0 | 0.0 | 0.00 | 0.00 | 0.00 | 37 | 1022.5 |
| 20260506150200 | 4 | 242 | 8.0 | 0.0 | 0.00 | 0.00 | 0.00 | 37 | 1022.6 |
| 20260506145600 | 4 | 332 | 8.0 | 0.0 | 0.00 | 0.00 | 0.00 | 38 | 1022.5 |
| 20260506145057 | 3 | 297 | 6.4 | 0.0 | 0.00 | 0.00 | 0.00 | 39 | 1022.5 |
| 20260506144603 | 3 | 205 | 9.7 | 0.0 | 0.00 | 0.00 | 0.00 | 40 | 1022.6 |
| 20260506144055 | 3 | 279 | 8.0 | 0.0 | 0.00 | 0.00 | 0.00 | 40 | 1022.7 |
| 20260506143554 | 2 | 247 | 6.4 | 0.0 | 0.00 | 0.00 | 0.00 | 43 | 1022.8 |
| 20260506143054 | 2 | 250 | 6.4 | 0.0 | 0.00 | 0.00 | 0.00 | 43 | 1022.8 |
| 20260506142551 | 2 | 251 | 6.4 | 0.0 | 0.00 | 0.00 | 0.00 | 44 | 1022.8 |
| 20260506142051 | 2 | 282 | 4.8 | 0.0 | 0.00 | 0.00 | 0.00 | 45 | 1022.9 |
| 20260506141550 | 2 | 245 | 4.8 | 0.0 | 0.00 | 0.00 | 0.00 | 45 | 1023.0 |
| 20260506141049 | 2 | 261 | 3.2 | 0.0 | 0.00 | 0.00 | 0.00 | 47 | 1022.9 |
| 20260506140549 | 2 | 285 | 3.2 | 0.0 | 0.00 | 0.00 | 0.00 | 47 | 1023.0 |
| 20260506140048 | 1 | 334 | 1.6 | 0.0 | 0.00 | 0.00 | 0.00 | 48 | 1023.0 |
| 20260506135546 | 1 | 5 | 0.0 | 0.0 | 0.00 | 0.00 | 0.00 | 48 | 1023.0 |
| 20260506135045 | 1 | 5 | 1.6 | 0.0 | 0.00 | 0.00 | 0.00 | 49 | 1023.0 |
| 20260506134544 | 1 | 11 | 1.6 | 0.0 | 0.00 | 0.00 | 0.00 | 49 | 1023.0 |
| 20260506134043 | 0 | 11 | 0.0 | 0.0 | 0.00 | 0.00 | 0.00 | 51 | 1023.0 |
| 20260506133542 | 0 | 90 | 0.0 | 0.0 | 0.00 | 0.00 | 0.00 | 53 | 1023.1 |
| 20260506133042 | 0 | 90 | 0.0 | 0.0 | 0.00 | 0.00 | 0.00 | 54 | 1023.1 |
| 20260506132545 | -1 | 90 | 0.0 | 0.0 | 0.00 | 0.00 | 0.00 | 57 | 1023.1 |
| 20260506132040 | -1 | 90 | 1.6 | 0.0 | 0.00 | 0.00 | 0.00 | 57 | 1023.2 |
| 20260506131546 | -1 | 90 | 1.6 | 0.0 | 0.00 | 0.00 | 0.00 | 58 | 1023.2 |
| 20260506131038 | -2 | 90 | 3.2 | 0.0 | 0.00 | 0.00 | 0.00 | 60 | 1023.2 |
| 20260506130536 | -3 | 90 | 4.8 | 0.0 | 0.00 | 0.00 | 0.00 | 61 | 1023.2 |
| 20260506130034 | -3 | 90 | 4.8 | 0.0 | 0.00 | 0.00 | 0.00 | 63 | 1023.1 |
| 20260506125533 | -4 | 90 | 6.4 | 0.0 | 0.00 | 0.00 | 0.00 | 65 | 1023.2 |
| 20260506125032 | -5 | 90 | 4.8 | 0.0 | 0.00 | 0.00 | 0.00 | 67 | 1023.2 |
| 20260506124534 | -6 | 90 | 6.4 | 0.0 | 0.00 | 0.00 | 0.00 | 70 | 1023.1 |
| 20260506124033 | -7 | 90 | 4.8 | 0.0 | 0.00 | 0.00 | 0.00 | 75 | 1023.0 |
| 20260506123530 | -7 | 90 | 3.2 | 0.0 | 0.00 | 0.00 | 0.00 | 75 | 1023.0 |
| 20260506123029 | -8 | 90 | 3.2 | 0.0 | 0.00 | 0.00 | 0.00 | 75 | 1023.0 |
| 20260506122528 | -8 | 90 | 3.2 | 0.0 | 0.00 | 0.00 | 0.00 | 75 | 1022.9 |
| 20260506122030 | -9 | 90 | 3.2 | 0.0 | 0.00 | 0.00 | 0.00 | 75 | 1022.9 |
| 20260506121527 | -9 | 90 | 3.2 | 0.0 | 0.00 | 0.00 | 0.00 | 75 | 1022.9 |
| 20260506121027 | -10 | 90 | 3.2 | 0.0 | 0.00 | 0.00 | 0.00 | 75 | 1022.8 |
| 20260506120527 | -10 | 90 | 1.6 | 0.0 | 0.00 | 0.00 | 0.00 | 75 | 1022.9 |
| 20260506120027 | -10 | 90 | 1.6 | 0.0 | 0.00 | 0.00 | 0.00 | 75 | 1022.8 |
| 20260506115525 | -10 | 90 | 1.6 | 0.0 | 0.00 | 0.00 | 0.00 | 77 | 1022.7 |
| 20260506115024 | -11 | 90 | 1.6 | 0.0 | 0.00 | 0.00 | 0.00 | 77 | 1022.6 |
| 20260506114534 | -11 | 90 | 3.2 | 0.0 | 0.00 | 0.00 | 0.00 | 75 | 1022.6 |
| 20260506114024 | -11 | 90 | 3.2 | 0.0 | 0.00 | 0.00 | 0.00 | 75 | 1022.5 |
| 20260506113523 | -10 | 90 | 1.6 | 0.0 | 0.00 | 0.00 | 0.00 | 75 | 1022.4 |
| 20260506113024 | -10 | 90 | 1.6 | 0.0 | 0.00 | 0.00 | 0.00 | 75 | 1022.4 |
| 20260506112523 | -10 | 90 | 1.6 | 0.0 | 0.00 | 0.00 | 0.00 | 76 | 1022.3 |
| 20260506112023 | -11 | 90 | 3.2 | 0.0 | 0.00 | 0.00 | 0.00 | 76 | 1022.3 |
| 20260506111523 | -11 | 90 | 3.2 | 0.0 | 0.00 | 0.00 | 0.00 | 76 | 1022.3 |
| 20260506111023 | -11 | 90 | 1.6 | 0.0 | 0.00 | 0.00 | 0.00 | 74 | 1022.3 |
| 20260506110526 | -11 | 90 | 3.2 | 0.0 | 0.00 | 0.00 | 0.00 | 74 | 1022.3 |
| 20260506110024 | -10 | 90 | 3.2 | 0.0 | 0.00 | 0.00 | 0.00 | 73 | 1022.3 |
| 20260506105527 | -10 | 90 | 3.2 | 0.0 | 0.00 | 0.00 | 0.00 | 72 | 1022.3 |
| 20260506105022 | -10 | 90 | 3.2 | 0.0 | 0.00 | 0.00 | 0.00 | 73 | 1022.2 |
| 20260506104522 | -10 | 90 | 3.2 | 0.0 | 0.00 | 0.00 | 0.00 | 73 | 1022.2 |
| 20260506104022 | -10 | 90 | 4.8 | 0.0 | 0.00 | 0.00 | 0.00 | 75 | 1022.3 |
| 20260506103522 | -10 | 90 | 4.8 | 0.0 | 0.00 | 0.00 | 0.00 | 75 | 1022.2 |
| 20260506103021 | -10 | 90 | 4.8 | 0.0 | 0.00 | 0.00 | 0.00 | 75 | 1022.2 |
| 20260506102520 | -10 | 90 | 3.2 | 0.0 | 0.00 | 0.00 | 0.00 | 74 | 1022.2 |
| 20260506102020 | -10 | 90 | 3.2 | 0.0 | 0.00 | 0.00 | 0.00 | 74 | 1022.1 |
| 20260506101521 | -10 | 90 | 3.2 | 0.0 | 0.00 | 0.00 | 0.00 | 75 | 1022.1 |
| 20260506101020 | -10 | 90 | 3.2 | 0.0 | 0.00 | 0.00 | 0.00 | 74 | 1022.1 |
| 20260506100520 | -10 | 90 | 3.2 | 0.0 | 0.00 | 0.00 | 0.00 | 74 | 1022.1 |
| 20260506100024 | -10 | 90 | 3.2 | 0.0 | 0.00 | 0.00 | 0.00 | 75 | 1022.1 |
| 20260506095520 | -10 | 90 | 3.2 | 0.0 | 0.00 | 0.00 | 0.00 | 75 | 1022.1 |
| 20260506095020 | -10 | 90 | 3.2 | 0.0 | 0.00 | 0.00 | 0.00 | 74 | 1022.1 |
| 20260506094519 | -10 | 90 | 1.6 | 0.0 | 0.00 | 0.00 | 0.00 | 72 | 1022.2 |
| 20260506094017 | -10 | 90 | 3.2 | 0.0 | 0.00 | 0.00 | 0.00 | 73 | 1022.1 |
| 20260506093520 | -10 | 90 | 4.8 | 0.0 | 0.00 | 0.00 | 0.00 | 73 | 1022.0 |
| 20260506093017 | -10 | 90 | 4.8 | 0.0 | 0.00 | 0.00 | 0.00 | 73 | 1022.0 |
| 20260506092520 | -10 | 90 | 4.8 | 0.0 | 0.00 | 0.00 | 0.00 | 73 | 1022.1 |
| 20260506092017 | -10 | 90 | 3.2 | 0.0 | 0.00 | 0.00 | 0.00 | 72 | 1022.0 |
| 20260506091520 | -10 | 90 | 3.2 | 0.0 | 0.00 | 0.00 | 0.00 | 72 | 1022.0 |
| 20260506091016 | -10 | 90 | 3.2 | 0.0 | 0.00 | 0.00 | 0.00 | 72 | 1022.0 |
| 20260506090515 | -10 | 90 | 3.2 | 0.0 | 0.00 | 0.00 | 0.00 | 73 | 1021.9 |
| 20260506090016 | -10 | 90 | 4.8 | 0.0 | 0.00 | 0.00 | 0.00 | 73 | 1022.0 |
| 20260506085515 | -10 | 90 | 4.8 | 0.0 | 0.00 | 0.00 | 0.00 | 73 | 1021.9 |
| 20260506085015 | -10 | 90 | 4.8 | 0.0 | 0.00 | 0.00 | 0.00 | 73 | 1021.9 |
| 20260506084515 | -10 | 90 | 6.4 | 0.0 | 0.00 | 0.00 | 0.00 | 73 | 1021.9 |
| 20260506084014 | -10 | 90 | 4.8 | 0.0 | 0.00 | 0.00 | 0.00 | 72 | 1021.9 |
| 20260506083514 | -10 | 90 | 4.8 | 0.0 | 0.00 | 0.00 | 0.00 | 72 | 1021.9 |
| 20260506083014 | -10 | 90 | 4.8 | 0.0 | 0.00 | 0.00 | 0.00 | 72 | 1021.9 |
| 20260506082513 | -10 | 90 | 4.8 | 0.0 | 0.00 | 0.00 | 0.00 | 72 | 1021.9 |
| 20260506082012 | -10 | 90 | 6.4 | 0.0 | 0.00 | 0.00 | 0.00 | 71 | 1021.9 |
| 20260506081511 | -9 | 90 | 6.4 | 0.0 | 0.00 | 0.00 | 0.00 | 70 | 1021.9 |
| 20260506081010 | -9 | 90 | 4.8 | 0.0 | 0.00 | 0.00 | 0.00 | 68 | 1021.9 |
| 20260506080510 | -8 | 90 | 3.2 | 0.0 | 0.00 | 0.00 | 0.00 | 69 | 1021.9 |
| 20260506073506 | -8 | 90 | 3.2 | 0.0 | 0.00 | 0.00 | 0.00 | 69 | 1021.8 |
| 20260506073005 | -8 | 90 | 3.2 | 0.0 | 0.00 | 0.00 | 0.00 | 69 | 1021.9 |
| 20260506072503 | -8 | 90 | 3.2 | 0.0 | 0.00 | 0.00 | 0.00 | 69 | 1021.8 |
| 20260506072006 | -8 | 90 | 4.8 | 0.0 | 0.00 | 0.00 | 0.00 | 68 | 1021.7 |
| 20260506071503 | -8 | 90 | 4.8 | 0.0 | 0.00 | 0.00 | 0.00 | 69 | 1021.7 |
| 20260506071003 | -8 | 90 | 3.2 | 0.0 | 0.00 | 0.00 | 0.00 | 69 | 1021.7 |
| 20260506070505 | -8 | 90 | 3.2 | 0.0 | 0.00 | 0.00 | 0.00 | 69 | 1021.7 |
| 20260506062058 | -7 | 90 | 4.8 | 0.0 | 0.00 | 0.00 | 0.00 | 65 | 1021.5 |
| 20260506061556 | -7 | 83 | 4.8 | 0.0 | 0.00 | 0.00 | 0.00 | 65 | 1021.5 |
| 20260506061056 | -7 | 83 | 4.8 | 0.0 | 0.00 | 0.00 | 0.00 | 64 | 1021.5 |
| 20260506060553 | -7 | 83 | 3.2 | 0.0 | 0.00 | 0.00 | 0.00 | 62 | 1021.5 |
| 20260506051043 | -5 | 68 | 4.8 | 0.0 | 0.00 | 0.00 | 0.00 | 58 | 1021.0 |
| 20260506050545 | -4 | 68 | 4.8 | 0.0 | 0.00 | 0.00 | 0.00 | 57 | 1020.9 |
| 20260506045036 | -2 | 355 | 0.0 | 0.0 | 0.00 | 0.00 | 0.00 | 51 | 1021.0 |
| 20260506044543 | -1 | 300 | 0.0 | 0.0 | 0.00 | 0.00 | 0.00 | 51 | 1020.9 |
| 20260506044034 | -1 | 300 | 1.6 | 0.0 | 0.00 | 0.00 | 0.00 | 51 | 1020.9 |
| 20260506043533 | -1 | 300 | 1.6 | 0.0 | 0.00 | 0.00 | 0.00 | 50 | 1020.9 |
| 20260506042533 | -1 | 300 | 3.2 | 0.0 | 0.00 | 0.00 | 0.00 | 49 | 1020.9 |
| 20260506042032 | 0 | 300 | 3.2 | 0.0 | 0.00 | 0.00 | 0.00 | 48 | 1020.9 |
| 20260506041530 | 0 | 298 | 1.6 | 0.0 | 0.00 | 0.00 | 0.00 | 46 | 1020.8 |
| 20260506041032 | 0 | 290 | 1.6 | 0.0 | 0.00 | 0.00 | 0.00 | 45 | 1020.8 |
| 20260506040529 | 1 | 290 | 1.6 | 0.0 | 0.00 | 0.00 | 0.00 | 44 | 1020.8 |
| 20260506040028 | 1 | 290 | 4.8 | 0.0 | 0.00 | 0.00 | 0.00 | 43 | 1020.7 |
| 20260506035531 | 2 | 292 | 6.4 | 0.0 | 0.00 | 0.00 | 0.00 | 41 | 1020.7 |
| 20260506035029 | 2 | 305 | 8.0 | 0.0 | 0.00 | 0.00 | 0.00 | 40 | 1020.7 |
| 20260506034528 | 3 | 319 | 8.0 | 0.0 | 0.00 | 0.00 | 0.00 | 39 | 1020.6 |
| 20260506034027 | 3 | 320 | 8.0 | 0.0 | 0.00 | 0.00 | 0.00 | 39 | 1020.6 |
| 20260506033526 | 3 | 312 | 6.4 | 0.0 | 0.00 | 0.00 | 0.00 | 40 | 1020.6 |
| 20260506032526 | 3 | 310 | 3.2 | 0.0 | 0.00 | 0.00 | 0.00 | 40 | 1020.5 |
| 20260506032028 | 4 | 306 | 3.2 | 0.0 | 0.00 | 0.00 | 0.00 | 39 | 1020.4 |
| 20260506031532 | 4 | 296 | 4.8 | 0.0 | 0.00 | 0.00 | 0.00 | 39 | 1020.3 |
| 20260506031025 | 5 | 323 | 6.4 | 0.0 | 0.00 | 0.00 | 0.00 | 38 | 1020.3 |
| 20260506030527 | 5 | 309 | 8.0 | 0.0 | 0.00 | 0.00 | 0.00 | 38 | 1020.3 |
| 20260506030046 | 5 | 319 | 8.0 | 0.0 | 0.00 | 0.00 | 0.00 | 38 | 1020.3 |
| 20260506025524 | 5 | 323 | 9.7 | 0.0 | 0.00 | 0.00 | 0.00 | 38 | 1020.3 |
| 20260506025027 | 5 | 306 | 8.0 | 0.0 | 0.00 | 0.00 | 0.00 | 38 | 1020.2 |
| 20260506024528 | 5 | 312 | 8.0 | 0.0 | 0.00 | 0.00 | 0.00 | 38 | 1020.2 |
| 20260506024023 | 5 | 328 | 6.4 | 0.0 | 0.00 | 0.00 | 0.00 | 38 | 1020.1 |
| 20260506023522 | 5 | 316 | 3.2 | 0.0 | 0.00 | 0.00 | 0.00 | 38 | 1020.0 |
| 20260506022521 | 5 | 286 | 4.8 | 0.0 | 0.00 | 0.00 | 0.00 | 38 | 1019.9 |
| 20260506022020 | 5 | 311 | 8.0 | 0.0 | 0.00 | 0.00 | 0.00 | 37 | 1019.9 |
| 20260506021521 | 5 | 320 | 9.7 | 0.0 | 0.00 | 0.00 | 0.00 | 36 | 1019.9 |
| 20260506021021 | 6 | 310 | 11.3 | 0.0 | 0.00 | 0.00 | 0.00 | 35 | 1019.9 |
| 20260506020524 | 6 | 318 | 11.3 | 0.0 | 0.00 | 0.00 | 0.00 | 35 | 1019.9 |
| 20260506020020 | 6 | 306 | 12.9 | 0.0 | 0.00 | 0.00 | 0.00 | 35 | 1019.8 |
| 20260506015520 | 6 | 317 | 14.5 | 0.0 | 0.00 | 0.00 | 0.00 | 34 | 1019.8 |
| 20260506015020 | 6 | 316 | 12.9 | 0.0 | 0.00 | 0.00 | 0.00 | 34 | 1019.7 |
| 20260506014520 | 6 | 327 | 9.7 | 0.0 | 0.00 | 0.00 | 0.00 | 34 | 1019.6 |
| 20260506014020 | 6 | 315 | 12.9 | 0.0 | 0.00 | 0.00 | 0.00 | 34 | 1019.6 |
| 20260506013523 | 6 | 319 | 17.7 | 0.0 | 0.00 | 0.00 | 0.00 | 33 | 1019.6 |
| 20260506012520 | 6 | 314 | 19.3 | 0.0 | 0.00 | 0.00 | 0.00 | 32 | 1019.6 |
| 20260506012020 | 7 | 327 | 16.1 | 0.0 | 0.00 | 0.00 | 0.00 | 31 | 1019.6 |
| 20260506011530 | 7 | 276 | 16.1 | 0.0 | 0.00 | 0.00 | 0.00 | 32 | 1019.5 |
| 20260506011022 | 7 | 286 | 17.7 | 0.0 | 0.00 | 0.00 | 0.00 | 32 | 1019.4 |
| 20260506010520 | 7 | 315 | 17.7 | 0.0 | 0.00 | 0.00 | 0.00 | 31 | 1019.5 |
| 20260506010020 | 7 | 294 | 19.3 | 0.0 | 0.00 | 0.00 | 0.00 | 32 | 1019.4 |
| 20260506005520 | 7 | 327 | 17.7 | 0.0 | 0.00 | 0.00 | 0.00 | 31 | 1019.5 |
| 20260506005019 | 7 | 326 | 19.3 | 0.0 | 0.00 | 0.00 | 0.00 | 31 | 1019.3 |
| 20260506004536 | 7 | 308 | 22.5 | 0.0 | 0.00 | 0.00 | 0.00 | 31 | 1019.4 |
| 20260506004019 | 7 | 284 | 20.9 | 0.0 | 0.00 | 0.00 | 0.00 | 32 | 1019.3 |
| 20260506003519 | 7 | 321 | 19.3 | 0.0 | 0.00 | 0.00 | 0.00 | 32 | 1019.3 |
| 20260506002518 | 7 | 333 | 16.1 | 0.0 | 0.00 | 0.00 | 0.00 | 32 | 1019.4 |
| 20260506002019 | 7 | 331 | 17.7 | 0.0 | 0.00 | 0.00 | 0.00 | 33 | 1019.5 |
| 20260506001521 | 7 | 337 | 20.9 | 0.0 | 0.00 | 0.00 | 0.00 | 33 | 1019.5 |
| 20260506001019 | 6 | 304 | 19.3 | 0.0 | 0.00 | 0.00 | 0.00 | 34 | 1019.5 |
| 20260506000519 | 6 | 319 | 19.3 | 0.0 | 0.00 | 0.00 | 0.00 | 33 | 1019.5 |
| 20260506000023 | 6 | 313 | 19.3 | 0.0 | 0.00 | 0.00 | 0.00 | 33 | 1019.6 |
| 20260505235518 | 6 | 336 | 17.7 | 0.0 | 0.00 | 0.00 | 0.00 | 34 | 1019.5 |
| 20260505235018 | 6 | 338 | 17.7 | 0.0 | 0.00 | 0.00 | 0.00 | 34 | 1019.5 |
| 20260505234518 | 6 | 323 | 19.3 | 0.0 | 0.00 | 0.00 | 0.00 | 34 | 1019.5 |
| 20260505234018 | 6 | 327 | 19.3 | 0.0 | 0.00 | 0.00 | 0.00 | 34 | 1019.4 |
| 20260505233520 | 6 | 293 | 19.3 | 0.0 | 0.00 | 0.00 | 0.00 | 34 | 1019.4 |
| 20260505232518 | 6 | 338 | 17.7 | 0.0 | 0.00 | 0.00 | 0.00 | 34 | 1019.4 |
| 20260505232018 | 6 | 331 | 20.9 | 0.0 | 0.00 | 0.00 | 0.00 | 34 | 1019.4 |
| 20260505231525 | 6 | 310 | 20.9 | 0.0 | 0.00 | 0.00 | 0.00 | 34 | 1019.2 |
| 20260505231018 | 7 | 313 | 19.3 | 0.0 | 0.00 | 0.00 | 0.00 | 33 | 1019.2 |
| 20260505230519 | 7 | 321 | 19.3 | 0.0 | 0.00 | 0.00 | 0.00 | 33 | 1019.1 |
| 20260505230021 | 7 | 286 | 17.7 | 0.0 | 0.00 | 0.00 | 0.00 | 33 | 1019.1 |
| 20260505225518 | 7 | 321 | 17.7 | 0.0 | 0.00 | 0.00 | 0.00 | 33 | 1019.2 |
| 20260505225022 | 7 | 273 | 17.7 | 0.0 | 0.00 | 0.00 | 0.00 | 33 | 1019.1 |
| 20260505224517 | 7 | 300 | 19.3 | 0.0 | 0.00 | 0.00 | 0.00 | 33 | 1019.2 |
| 20260505224018 | 6 | 280 | 20.9 | 0.0 | 0.00 | 0.00 | 0.00 | 34 | 1019.1 |
| 20260505223518 | 6 | 308 | 20.9 | 0.0 | 0.00 | 0.00 | 0.00 | 34 | 1019.2 |
| 20260505222519 | 7 | 326 | 19.3 | 0.0 | 0.00 | 0.00 | 0.00 | 33 | 1019.2 |
| 20260505222017 | 7 | 331 | 22.5 | 0.0 | 0.00 | 0.00 | 0.00 | 35 | 1019.2 |
| 20260505221519 | 6 | 288 | 20.9 | 0.0 | 0.00 | 0.00 | 0.00 | 34 | 1019.3 |
| 20260505221016 | 6 | 342 | 19.3 | 0.0 | 0.00 | 0.00 | 0.00 | 34 | 1019.2 |
| 20260505220516 | 6 | 355 | 20.9 | 0.0 | 0.00 | 0.00 | 0.00 | 34 | 1019.2 |
| 20260505220016 | 6 | 313 | 20.9 | 0.0 | 0.00 | 0.00 | 0.00 | 34 | 1019.2 |
| 20260505215516 | 7 | 329 | 20.9 | 0.0 | 0.00 | 0.00 | 0.00 | 33 | 1019.1 |
| 20260505215020 | 6 | 321 | 20.9 | 0.0 | 0.00 | 0.00 | 0.00 | 34 | 1019.2 |
| 20260505214517 | 7 | 321 | 24.1 | 0.0 | 0.00 | 0.00 | 0.00 | 33 | 1019.4 |
| 20260505214016 | 7 | 272 | 20.9 | 0.0 | 0.00 | 0.00 | 0.00 | 33 | 1019.3 |
| 20260505213519 | 7 | 275 | 19.3 | 0.0 | 0.00 | 0.00 | 0.00 | 33 | 1019.3 |
| 20260505212515 | 6 | 330 | 20.9 | 0.0 | 0.00 | 0.00 | 0.00 | 35 | 1019.4 |
| 20260505212015 | 6 | 323 | 20.9 | 0.0 | 0.00 | 0.00 | 0.00 | 35 | 1019.4 |
| 20260505211514 | 6 | 312 | 19.3 | 0.0 | 0.00 | 0.00 | 0.00 | 34 | 1019.4 |
| 20260505211013 | 6 | 300 | 19.3 | 0.0 | 0.00 | 0.00 | 0.00 | 35 | 1019.4 |
| 20260505210515 | 6 | 329 | 19.3 | 0.0 | 0.00 | 0.00 | 0.00 | 35 | 1019.4 |
| 20260505210013 | 7 | 309 | 19.3 | 0.0 | 0.00 | 0.00 | 0.00 | 34 | 1019.5 |
| 20260505205513 | 6 | 280 | 19.3 | 0.0 | 0.00 | 0.00 | 0.00 | 35 | 1019.5 |
| 20260505205012 | 6 | 308 | 19.3 | 0.0 | 0.00 | 0.00 | 0.00 | 36 | 1019.6 |
| 20260505204514 | 6 | 339 | 19.3 | 0.0 | 0.00 | 0.00 | 0.00 | 36 | 1019.6 |
| 20260505204013 | 6 | 323 | 19.3 | 0.0 | 0.00 | 0.00 | 0.00 | 36 | 1019.7 |
| 20260505203511 | 6 | 340 | 20.9 | 0.0 | 0.00 | 0.00 | 0.00 | 37 | 1019.7 |
| 20260505202513 | 6 | 321 | 24.1 | 0.0 | 0.00 | 0.00 | 0.00 | 36 | 1019.6 |
| 20260505202012 | 6 | 320 | 22.5 | 0.0 | 0.00 | 0.00 | 0.00 | 36 | 1019.6 |
| 20260505201512 | 6 | 285 | 20.9 | 0.0 | 0.00 | 0.00 | 0.00 | 35 | 1019.8 |
| 20260505201012 | 6 | 286 | 22.5 | 0.0 | 0.00 | 0.00 | 0.00 | 36 | 1019.6 |
| 20260505200514 | 6 | 317 | 19.3 | 0.0 | 0.00 | 0.00 | 0.00 | 35 | 1019.7 |
| 20260505200014 | 6 | 275 | 19.3 | 0.0 | 0.00 | 0.00 | 0.00 | 36 | 1019.6 |
| 20260505195516 | 6 | 321 | 19.3 | 0.0 | 0.00 | 0.00 | 0.00 | 36 | 1019.7 |
| 20260505195012 | 6 | 323 | 19.3 | 0.0 | 0.00 | 0.00 | 0.00 | 36 | 1019.7 |
| 20260505194511 | 6 | 327 | 17.7 | 0.0 | 0.00 | 0.00 | 0.00 | 35 | 1019.8 |
| 20260505194011 | 6 | 328 | 16.1 | 0.0 | 0.00 | 0.00 | 0.00 | 35 | 1019.8 |
| 20260505193511 | 6 | 346 | 17.7 | 0.0 | 0.00 | 0.00 | 0.00 | 36 | 1019.8 |
| 20260505192510 | 5 | 310 | 17.7 | 0.0 | 0.00 | 0.00 | 0.00 | 36 | 1019.7 |
| 20260505192010 | 6 | 298 | 17.7 | 0.0 | 0.00 | 0.00 | 0.00 | 36 | 1019.6 |
| 20260505191510 | 5 | 271 | 17.7 | 0.0 | 0.00 | 0.00 | 0.00 | 36 | 1019.6 |
| 20260505191010 | 6 | 275 | 16.1 | 0.0 | 0.00 | 0.00 | 0.00 | 35 | 1019.6 |
| 20260505190509 | 5 | 303 | 17.7 | 0.0 | 0.00 | 0.00 | 0.00 | 36 | 1019.6 |
| 20260505190009 | 5 | 288 | 20.9 | 0.0 | 0.00 | 0.00 | 0.00 | 36 | 1019.6 |
| 20260505185509 | 5 | 320 | 19.3 | 0.0 | 0.00 | 0.00 | 0.00 | 35 | 1019.6 |
| 20260505185012 | 6 | 255 | 17.7 | 0.0 | 0.00 | 0.00 | 0.00 | 35 | 1019.5 |
| 20260505184517 | 5 | 269 | 19.3 | 0.0 | 0.00 | 0.00 | 0.00 | 36 | 1019.6 |
| 20260505184009 | 6 | 311 | 20.9 | 0.0 | 0.00 | 0.00 | 0.00 | 35 | 1019.6 |
| 20260505183509 | 6 | 334 | 20.9 | 0.0 | 0.00 | 0.00 | 0.00 | 34 | 1019.7 |